Hourly Data Report for October 17, 2015

All times are specified in Local Standard Time (LST). Add 1 hour to adjust for Daylight Saving Time where and when it is observed.

FREDERICTON
NEW BRUNSWICK

45°52'08.000" N
66°32'14.000" W
20.70 m
8101505
71700
YFC

Download Data

Hourly Data (October 2015)
Hourly Data Report for October 17, 2015
Temp Definition
°C
Dew Point Temp Definition
°C
Rel Hum Definition
%
Wind Dir Definition
10's deg

Wind Spd Definition
km/h
Visibility Definition
km
Stn Press Definition
kPa
Hmdx Definition


Wind Chill Definition


Weather Definition


TIME
00:00 Legend Double Dagger 0.3 -0.6 94 25 9 16.1 101.09     LegendNANA
01:00 Legend Double Dagger -0.8 -1.4 96 23 13 16.1 101.12   -5 LegendNANA
02:00 Legend Double Dagger -1.4 -1.8 97 18 5 16.1 101.12   -3 LegendNANA
03:00 Legend Double Dagger -0.9 -1.3 97 19 5 16.1 101.09   -3 LegendNANA
04:00 Legend Double Dagger -2.4 -2.7 98 23 5 16.1 101.14   -4 LegendNANA
05:00 Legend Double Dagger -2.2 -2.5 98 LegendMM 4 16.1 101.16   -4 LegendNANA
06:00 Legend Double Dagger -1.5 -1.8 98 21 8 16.1 101.18   -5 LegendNANA
07:00 Legend Double Dagger -1.6 -1.9 98   0 16.1 101.18     LegendNANA
08:00 Legend Double Dagger -0.6 -0.9 98 23 5 16.1 101.19   -2 LegendNANA
09:00 Legend Double Dagger 1.4 -0.1 90   0 16.1 101.19     LegendNANA
10:00 Legend Double Dagger 3.8 0.2 78 LegendMM 4 16.1 101.16     LegendNANA
11:00 Legend Double Dagger 4.9 1.5 78 5 8 16.1 101.10     LegendNANA
12:00 Legend Double Dagger 5.2 2.2 81 LegendMM 4 16.1 101.05     Rain
13:00 Legend Double Dagger 5.4 3.2 86 4 11 16.1 100.93     Rain
14:00 Legend Double Dagger 5.2 3.7 90 6 17 12.9 100.84     Rain
15:00 Legend Double Dagger 4.8 3.8 93 3 15 8.1 100.78     Rain,Fog
16:00 Legend Double Dagger 6.1 4.8 91 4 13 16.1 100.71     LegendNANA
17:00 Legend Double Dagger 4.9 4.0 94 31 21 16.1 100.77     Rain
18:00 Legend Double Dagger 2.3 1.4 94 32 21 16.1 100.88     LegendNANA
19:00 Legend Double Dagger 2.3 1.3 93 33 22 16.1 100.98     LegendNANA
20:00 Legend Double Dagger 2.4 1.4 93 33 13 16.1 101.04     LegendNANA
21:00 Legend Double Dagger 2.1 1.2 94 29 11 16.1 101.10     LegendNANA
22:00 Legend Double Dagger 1.8 0.6 92 30 17 16.1 101.16     LegendNANA
23:00 Legend Double Dagger 1.9 0.6 91 30 9 16.1 101.19     LegendNANA

Notes on Data Quality.

Legend

  • E = Estimated
  • M = Missing
  • NA = Not Available
  • ‡ = Partner data that is not subject to review by the National Climate Archives
Date modified: